This is the latest recevied weather packets stored in our database for station/object K7DC. If no packets are shown the sender has not sent any weather packets the latest 10 day(s).
| Time | Temp. | Humidity | Pressure | Rain* | Wind** | Luminosity | Snow |
|---|---|---|---|---|---|---|---|
| 1777723986 | 11.67° C | 63% | 1014.1 hPa | 0 mm | - | 0 W/m² | - |
| 1777723683 | 12.22° C | 60% | 1014.2 hPa | 0 mm | - | 0 W/m² | - |
| 1777723379 | 12.78° C | 59% | 1014 hPa | 0 mm | - | 0 W/m² | - |
| 1777723077 | 12.78° C | 60% | 1014 hPa | 0 mm | - | 0 W/m² | - |
| 1777722774 | 12.78° C | 61% | 1014 hPa | 0 mm | - | 0 W/m² | - |
| 1777722470 | 12.78° C | 62% | 1013.9 hPa | 0 mm | - | 0 W/m² | - |
| 1777722167 | 12.78° C | 60% | 1013.7 hPa | 0 mm | - | 0 W/m² | - |
| 1777721864 | 13.33° C | 59% | 1013.7 hPa | 0 mm | - | 0 W/m² | - |
| 1777721562 | 13.33° C | 59% | 1013.8 hPa | 0 mm | - | 0 W/m² | - |
| 1777721260 | 13.89° C | 60% | 1013.7 hPa | 0 mm | - | 0 W/m² | - |
| 1777720957 | 13.89° C | 61% | 1013.4 hPa | 0 mm | - | 0 W/m² | - |
| 1777720654 | 14.44° C | 59% | 1013.4 hPa | 0 mm | - | 0 W/m² | - |
| 1777720352 | 15° C | 54% | 1013.8 hPa | 0 mm | - | 0 W/m² | - |
| 1777720049 | 15.56° C | 46% | 1013.7 hPa | 0 mm | - | 0 W/m² | - |
| 1777719747 | 15.56° C | 34% | 1013.8 hPa | 0 mm | - | 0 W/m² | - |
| 1777719445 | 16.11° C | 34% | 1013.7 hPa | 0 mm | - | 0 W/m² | - |
| 1777719141 | 16.11° C | 34% | 1013.7 hPa | 0 mm | - | 0 W/m² | - |
| 1777718838 | 16.11° C | 34% | 1013.5 hPa | 0 mm | - | 0 W/m² | - |
| 1777718536 | 16.11° C | 34% | 1013.5 hPa | 0 mm | - | 0 W/m² | - |
| 1777718233 | 16.11° C | 36% | 1013.5 hPa | 0 mm | - | 0 W/m² | - |
| 1777717931 | 16.11° C | 37% | 1013.4 hPa | 0 mm | - | 0 W/m² | - |
| 1777717627 | 15.56° C | 38% | 1013.4 hPa | 0 mm | - | 0 W/m² | - |
| 1777717324 | 15.56° C | 41% | 1013.3 hPa | 0 mm | - | 0 W/m² | - |
| 1777717022 | 15.56° C | 44% | 1013.4 hPa | 0 mm | - | 0 W/m² | - |
| 1777716720 | 15.56° C | 46% | 1013.4 hPa | 0 mm | - | 0 W/m² | - |
* Rain latest hour (hover to see other rain measurements)
** Current wind speed in m/s (hover to see current wind gust speed)